Hourly Data Report for January 17, 2022

ST. JOHN'S INTL A
NEWFOUNDLAND
Current Station Operator: NAVCAN

47°37'07.000" N
52°45'09.000" W
140.50 m
8403505
71801
YYT

Download Data

Hourly Data (January 2022)
Hourly Data Report for January 17, 2022
TIME
LST
Temp Definition
°C
Dew Point Definition
°C
Rel Hum Definition
%
Precip. Amount Definition
mm

Wind Dir Definition
10's deg

Wind Spd Definition
km/h
Visibility Definition
km
Stn Press Definition
kPa
Hmdx Definition


Wind Chill Definition


Weather Definition


00:30 -7.5 -10.9 77   31 27 24.1 99.93   -16 LegendNANA
01:30 -8.2 -12.2 73   30 32 24.1 100.04   -17 LegendNANA
02:30 -8.7 -12.3 75   30 27 24.1 100.19   -17 Clear
03:30 -9.3 -12.8 76   30 17 24.1 100.30   -16 LegendNANA
04:30 -9.4 -13.1 75   30 19 24.1 100.39   -17 LegendNANA
05:30 -9.9 -13.1 78   30 17 24.1 100.43   -17 Clear
06:30 -9.4 -12.4 79   30 22 24.1 100.58   -17 LegendNANA
07:30 -8.9 -11.4 82   31 25 24.1 100.60   -17 LegendNANA
08:30 -7.6 -10.8 78   32 20 24.1 100.67   -15 Clear
09:30 -6.0 -9.9 74   32 17 24.1 100.79   -12 LegendNANA
10:30 -5.1 -9.1 74   31 25 24.1 100.78   -12 LegendNANA
11:30 -4.0 -8.8 70   28 17 24.1 100.80   -10 Mainly Clear
12:30 -3.5 -8.7 67   28 16 24.1 100.76   -9 LegendNANA
13:30 -3.0 -9.3 62   24 7 24.1 100.68   -6 LegendNANA
14:30 -2.3 -9.9 56   27 14 24.1 100.67   -7 Mainly Clear
15:30 -2.1 -8.6 61   25 16 24.1 100.74   -7 LegendNANA
16:30 -3.2 -8.4 67   24 9 24.1 100.76   -7 LegendNANA
17:30 -4.3 -8.4 74   19 11 24.1 100.73   -9 Mainly Clear
18:30 -4.9 -8.3 77   18 12 24.1 100.77   -10 LegendNANA
19:30 -4.1 -7.6 77   22 15 24.1 100.77   -9 LegendNANA
20:30 -4.3 -7.2 80   25 9 24.1 100.83   -8 Mainly Clear
21:30 -4.0 -6.6 82   18 13 24.1 100.68   -9 LegendNANA
22:30 -3.7 -6.0 84   18 26 24.1 100.56   -11 LegendNANA
23:30 -2.7 -4.4 88   17 24 24.1 100.49   -9 Mostly Cloudy

Notes on Data Quality.

Legend

  • E = Estimated
  • M = Missing
  • NA = Not Available*
  • [empty] = Indicates an unobserved value
Date modified: